TimeCDT,TemperatureF,Dew PointF,Humidity,Sea Level PressureIn,VisibilityMPH,Wind Direction,Wind SpeedMPH,Gust SpeedMPH,PrecipitationIn,Events,Conditions,WindDirDegrees,DateUTC
12:52 AM,52.0,39.0,61,30.17,8.0,NE,6.9,-,N/A,,Mostly Cloudy,50,2013-03-29 05:52:00
1:52 AM,52.0,39.9,63,30.17,8.0,ENE,6.9,-,N/A,,Mostly Cloudy,70,2013-03-29 06:52:00
2:52 AM,48.9,39.0,69,30.16,8.0,ENE,8.1,-,N/A,,Clear,60,2013-03-29 07:52:00
3:52 AM,46.9,39.0,74,30.16,7.0,Calm,Calm,-,N/A,,Clear,0,2013-03-29 08:52:00
4:52 AM,45.0,37.0,74,30.16,6.0,NE,6.9,-,N/A,,Haze,50,2013-03-29 09:52:00
5:52 AM,41.0,36.0,82,30.18,5.0,East,3.5,-,N/A,,Haze,100,2013-03-29 10:52:00
6:52 AM,44.1,37.0,76,30.19,5.0,ENE,8.1,-,N/A,,Haze,70,2013-03-29 11:52:00
7:52 AM,44.1,37.0,76,30.21,4.0,ENE,5.8,-,N/A,,Haze,70,2013-03-29 12:52:00
8:52 AM,46.0,37.9,73,30.22,4.0,East,5.8,-,N/A,,Haze,90,2013-03-29 13:52:00
9:52 AM,52.0,39.9,63,30.21,4.0,NE,6.9,-,N/A,,Haze,50,2013-03-29 14:52:00
10:52 AM,57.9,41.0,53,30.22,6.0,East,9.2,-,N/A,,Haze,80,2013-03-29 15:52:00
11:52 AM,63.0,41.0,45,30.20,7.0,ESE,10.4,-,N/A,,Clear,110,2013-03-29 16:52:00
12:52 PM,66.0,39.9,38,30.18,9.0,ESE,9.2,-,N/A,,Clear,120,2013-03-29 17:52:00
1:52 PM,68.0,37.9,33,30.16,10.0,ESE,9.2,-,N/A,,Clear,120,2013-03-29 18:52:00
2:52 PM,70.0,35.1,28,30.13,10.0,ESE,13.8,21.9,N/A,,Clear,120,2013-03-29 19:52:00
3:52 PM,71.1,37.0,29,30.11,10.0,SSE,11.5,-,N/A,,Clear,150,2013-03-29 20:52:00
4:52 PM,70.0,37.0,30,30.10,10.0,SSE,11.5,20.7,N/A,,Clear,150,2013-03-29 21:52:00
5:52 PM,69.1,36.0,30,30.11,10.0,SE,13.8,-,N/A,,Clear,140,2013-03-29 22:52:00
6:52 PM,64.9,41.0,42,30.11,10.0,SE,9.2,-,N/A,,Clear,130,2013-03-29 23:52:00
7:52 PM,57.9,41.0,53,30.12,9.0,SE,4.6,-,N/A,,Clear,140,2013-03-30 00:52:00
8:52 PM,52.0,39.9,63,30.13,10.0,ESE,5.8,-,N/A,,Clear,120,2013-03-30 01:52:00
9:52 PM,50.0,41.0,71,30.12,10.0,ESE,6.9,-,N/A,,Clear,120,2013-03-30 02:52:00
10:52 PM,46.0,39.9,79,30.11,9.0,SE,8.1,-,N/A,,Clear,130,2013-03-30 03:52:00
11:52 PM,48.0,42.1,80,30.09,9.0,SE,5.8,-,N/A,,Clear,140,2013-03-30 04:52:00